Wind_Speed
13 13 13 14 14 14 15 16 15 15 15 14 14 13 12 12 12 12 12 12 12 12 12 11 11 10 9 9 8 7 6 6 6 6 5 5 5 5 6 5 5 5 5 5 5 5 5 5 5
14 14 13 13 14 14 15 16 15 15 15 14 13 13 13 12 13 12 12 12 12 12 12 11 11 10 9 9 8 7 7 7 6 6 5 5 5 5 5 5 4 4 4 4 4 4 4 4 4
14 13 14 14 14 15 16 16 15 16 15 14 14 13 13 13 13 12 12 12 12 12 11 11 10 10 9 9 8 7 7 7 7 6 5 5 4 4 3 3 3 4 3 4 4 4 4 4 4
14 13 14 15 15 16 16 15 15 15 14 14 14 13 12 13 13 13 12 12 12 12 11 10 10 10 9 9 8 8 7 7 7 6 5 5 4 3 3 2 3 3 3 3 3 4 4 4 4
13 13 14 15 15 15 16 15 15 14 13 13 14 13 12 12 12 12 12 12 12 11 11 10 10 9 9 9 8 8 8 7 7 6 5 5 4 2 2 3 3 2 3 4 4 4 4 4 4
10 12 13 14 15 16 16 15 14 14 14 13 13 13 12 12 12 12 11 11 11 11 11 11 10 10 9 9 9 8 8 8 7 7 5 5 4 3 2 2 2 2 3 3 4 4 4 3 3
10 13 15 15 15 15 15 15 14 14 14 14 14 13 13 13 12 12 11 10 11 11 11 11 11 10 10 10 9 8 8 8 7 7 6 5 4 3 2 2 1 2 2 2 3 4 4 4 3
10 11 15 14 14 14 15 15 14 14 14 14 14 13 13 13 13 12 11 11 11 11 11 12 12 10 10 10 10 9 8 8 7 6 6 5 4 3 3 2 0 2 2 2 2 3 3 3 3
11 12 14 13 12 12 14 14 14 14 14 14 14 14 14 14 13 12 11 11 11 12 12 12 11 11 11 11 10 9 8 9 8 7 6 5 4 3 3 3 2 0 1 2 3 3 4 3 3
9 11 11 12 12 11 12 13 13 13 13 13 13 14 14 14 13 13 12 12 11 11 12 12 11 11 11 11 11 10 9 9 8 7 7 6 5 5 4 4 3 2 1 1 2 3 3 3 4
8 10 9 10 11 11 11 11 12 12 12 12 13 13 13 13 13 13 13 12 12 11 11 11 11 11 11 11 11 10 10 9 8 8 8 7 6 5 5 4 3 3 2 2 3 3 3 3 3
5 7 8 8 9 10 10 10 10 10 11 12 13 13 14 13 12 11 12 12 12 11 11 11 11 11 11 11 11 10 10 9 9 9 8 8 7 5 5 5 4 3 3 3 3 3 3 3 4
3 4 5 6 6 7 8 9 8 8 10 11 12 13 13 12 12 11 11 11 11 11 11 10 9 10 10 10 10 10 10 10 10 9 9 8 8 6 6 6 5 4 4 4 5 4 4 5 5
3 3 4 6 7 6 6 7 6 6 8 10 10 11 11 11 10 10 10 10 10 10 10 9 9 9 9 10 10 10 10 10 10 9 9 9 8 8 7 7 7 6 5 5 5 5 5 4 5
4 2 2 3 5 6 5 5 5 5 7 8 9 10 10 10 10 10 10 9 9 9 9 9 8 8 9 9 9 9 9 9 9 9 9 9 8 8 8 7 7 7 5 5 5 5 5 5 5
5 3 2 1 3 5 5 4 5 5 5 7 9 9 10 10 10 10 9 9 9 9 9 9 8 8 9 9 9 8 8 8 8 8 9 9 8 8 9 8 8 7 6 6 5 5 6 6 6
5 4 2 1 1 4 5 5 5 6 6 7 8 9 9 9 10 9 9 9 9 9 9 9 8 8 8 9 9 9 8 9 9 8 9 10 10 10 10 10 9 8 7 6 6 6 7 7 8
7 4 4 4 3 4 5 4 5 6 6 7 8 9 8 8 8 8 8 8 8 8 9 9 8 8 8 9 9 9 9 9 9 9 9 9 10 10 10 11 10 9 9 8 7 8 8 8 8
7 6 5 4 4 5 5 5 4 5 6 6 7 7 7 8 8 8 8 8 8 8 9 9 9 8 8 8 8 9 9 9 9 9 9 9 9 10 10 11 11 10 10 9 9 9 9 9 9
8 7 6 6 6 6 6 6 5 6 6 6 6 6 7 7 8 8 8 7 7 8 9 9 9 9 8 8 8 9 9 10 10 10 9 9 9 10 11 11 11 11 11 10 10 10 10 10 10
9 9 7 6 7 8 8 8 7 7 8 6 6 7 7 8 8 7 7 7 7 7 8 8 9 9 9 9 9 9 9 10 10 10 10 10 10 11 12 12 12 11 11 11 10 10 10 10 10
11 10 9 8 9 9 10 10 9 9 8 7 7 8 7 8 8 8 7 7 7 7 8 9 9 9 9 9 10 10 10 10 10 11 11 11 11 11 12 13 12 12 11 12 12 12 11 11 12
11 11 11 11 11 10 11 11 9 10 8 7 8 8 8 8 9 9 8 8 8 8 8 9 9 9 10 10 10 10 10 11 11 12 12 12 13 13 13 14 14 13 13 13 13 14 13 12 12
11 12 13 12 13 12 11 12 10 9 9 8 9 9 9 10 11 10 9 8 9 9 9 9 10 10 10 11 10 10 11 11 12 13 13 14 14 14 14 14 15 14 14 14 14 14 15 14 13
14 14 14 15 15 13 12 12 10 9 9 9 9 9 9 11 12 12 11 10 10 10 10 10 11 11 11 11 11 11 11 12 13 13 14 14 14 15 15 15 15 15 15 15 16 16 16 14 14
16 16 16 16 15 13 14 14 11 10 10 11 11 11 11 11 12 12 12 10 10 11 11 11 12 12 12 12 12 12 13 13 13 14 14 15 16 16 16 16 17 16 16 16 17 18 16 15 15
16 17 16 17 16 16 16 16 13 12 12 12 13 13 12 12 13 13 12 12 11 12 13 13 13 12 13 13 13 14 14 14 14 15 15 16 17 17 17 17 18 18 17 17 18 18 16 16 16
17 16 17 18 19 19 18 16 14 14 14 15 15 15 14 12 12 12 13 13 13 13 14 15 14 14 14 15 15 15 15 15 15 16 17 18 18 19 18 18 18 18 18 18 19 17 17 17 17
19 19 18 19 20 21 20 18 16 16 15 15 16 17 14 13 13 13 14 14 14 15 14 15 15 16 16 17 17 17 17 17 17 17 18 19 19 20 19 19 18 18 18 19 18 18 17 17 17
21 21 21 21 20 21 21 21 19 19 17 16 16 16 16 14 13 13 15 16 16 16 16 16 17 17 18 18 19 19 18 18 19 19 20 21 21 21 20 20 19 19 19 19 19 18 17 18 18
Wind_Direction
85 82 82 77 74 70 66 60 57 60 60 58 59 60 60 59 62 66 66 66 64 64 63 64 67 69 68 69 72 73 73 77 80 86 97 105 111 120 131 133 136 143 150 152 152 153 156 153 147
83 81 83 78 72 67 65 61 58 58 60 61 62 63 64 63 64 65 66 65 64 63 62 64 67 68 67 68 69 69 71 75 80 86 99 109 116 123 130 136 141 148 157 162 166 170 170 164 159
85 81 79 77 70 68 65 60 58 59 61 63 63 64 67 66 63 64 65 64 63 63 61 62 65 66 66 67 69 70 73 74 76 83 97 110 116 122 126 138 149 157 161 169 177 184 180 176 174
86 83 77 73 66 62 62 60 58 61 63 64 62 64 66 65 62 62 63 62 61 62 61 60 60 62 64 65 66 65 67 71 75 78 87 96 105 115 114 121 137 162 180 181 185 188 185 184 185
90 85 79 69 64 57 57 57 58 63 62 65 63 63 64 63 60 60 61 61 60 59 57 57 57 57 61 63 64 65 63 67 70 72 76 82 89 89 91 116 131 151 174 190 190 187 188 194 202
94 83 77 67 61 57 54 53 57 61 59 59 59 57 57 57 54 59 62 61 59 57 56 55 54 56 58 58 60 66 65 64 64 65 68 72 79 85 91 108 147 159 167 179 192 202 203 211 220
84 81 78 69 63 59 54 52 53 55 58 54 53 53 51 50 48 52 57 59 59 56 53 52 51 54 55 53 55 60 62 62 63 66 66 67 65 68 77 93 149 176 176 183 199 208 220 229 229
78 77 76 67 62 57 53 52 52 55 56 53 52 50 48 48 49 50 53 59 58 58 56 55 55 54 54 53 52 54 58 60 60 60 57 54 56 55 52 47 71 195 193 209 239 233 234 235 234
83 79 74 65 58 56 48 47 49 51 51 49 48 47 46 45 49 51 54 58 62 62 57 54 57 56 55 53 51 53 57 56 54 50 48 50 50 49 42 34 26 65 221 243 251 247 239 249 254
86 78 69 64 57 56 49 45 46 48 47 45 44 43 43 45 52 53 54 58 62 63 58 54 55 54 51 49 47 49 52 52 48 44 39 36 42 42 35 31 31 28 334 272 260 253 254 262 258
87 80 75 71 61 59 52 45 45 47 47 43 43 42 38 46 51 53 54 59 59 58 58 55 54 52 47 44 44 46 45 45 45 43 39 35 35 33 29 23 23 16 351 304 287 274 272 276 268
99 88 80 67 57 56 50 45 42 44 42 41 40 40 38 43 47 51 55 59 57 54 53 51 49 47 43 40 40 41 38 38 36 33 33 33 31 32 27 18 17 8 356 340 299 295 288 286 277
124 110 87 69 56 43 46 49 40 38 36 39 36 36 37 42 47 49 53 54 52 51 50 48 46 42 39 38 37 35 33 33 32 30 25 26 27 25 20 13 3 355 346 337 336 320 301 289 282
142 109 78 62 48 44 35 47 42 38 30 35 32 31 31 33 46 52 49 47 47 46 45 43 42 42 38 36 35 32 28 28 28 26 28 25 24 22 16 11 360 348 343 343 337 328 310 293 287
177 165 117 69 38 33 19 23 30 31 27 32 32 28 30 33 36 40 41 40 36 35 36 34 34 37 34 32 29 28 26 25 26 25 24 22 21 17 10 5 360 352 338 325 322 318 313 307 303
179 196 177 84 26 18 2 13 19 20 28 36 32 29 30 35 35 34 33 31 26 22 21 22 24 23 23 22 21 21 22 19 16 16 14 14 14 12 9 5 0 352 342 329 324 321 315 312 309
191 203 207 215 335 343 347 13 17 7 8 25 27 23 24 32 31 28 27 25 20 14 12 11 13 12 13 14 17 20 19 18 16 15 13 14 11 6 4 3 359 352 343 330 320 313 307 305 304
207 214 227 244 283 295 312 341 4 356 357 6 13 11 9 14 17 12 13 14 11 10 8 8 9 7 6 8 13 16 15 15 15 15 13 11 6 2 356 354 350 346 340 329 316 312 309 307 303
212 220 242 260 254 271 280 294 330 340 346 4 7 360 355 355 357 359 2 2 2 4 360 -0 1 2 2 4 6 7 7 5 5 4 3 0 356 351 348 345 342 338 336 329 320 313 310 309 308
222 226 232 244 247 267 268 281 300 310 315 336 348 343 339 342 348 345 346 349 354 356 354 352 352 354 358 0 360 1 2 358 355 354 353 353 351 347 345 342 336 331 328 322 316 312 309 307 307
224 230 237 250 265 271 277 284 287 291 294 306 318 319 328 326 330 336 339 338 345 351 350 348 346 346 347 350 352 353 353 351 350 348 345 345 344 341 339 336 331 329 326 323 319 313 307 305 307
224 226 234 245 255 264 275 284 286 285 279 284 298 306 309 313 316 324 323 326 332 339 340 341 343 343 340 341 345 347 347 345 343 341 339 338 336 334 335 335 330 328 325 326 324 314 307 302 301
228 231 238 249 257 258 266 274 280 280 269 278 290 300 306 306 309 313 312 314 318 325 329 333 334 335 334 333 338 338 338 338 337 337 337 335 337 335 333 335 332 330 325 323 322 322 314 304 299
228 233 243 247 253 256 261 271 281 283 282 280 287 299 306 307 304 304 301 306 310 312 316 322 324 326 326 326 329 328 329 332 333 333 333 332 333 333 329 329 331 328 323 321 321 320 316 310 303
229 229 236 243 248 251 255 264 274 278 276 277 278 290 296 300 305 302 295 299 306 305 309 312 315 318 316 316 318 320 324 325 328 329 329 327 327 326 325 323 324 325 322 324 323 321 317 313 311
230 234 238 244 249 256 256 263 268 275 278 280 281 289 292 296 298 301 296 297 300 304 307 308 310 314 314 313 315 316 318 320 320 321 322 321 321 320 319 319 319 320 318 318 318 318 316 310 309
231 234 239 246 251 258 260 265 264 268 276 283 284 285 288 292 297 302 303 300 301 307 307 305 308 310 310 310 310 312 315 315 314 313 315 316 316 316 316 315 313 312 313 314 314 314 313 308 306
236 237 241 246 250 254 258 261 261 265 273 278 279 276 279 283 289 296 298 297 299 303 305 303 303 305 307 306 307 309 309 310 310 309 310 310 311 312 313 309 310 310 309 309 311 312 311 309 305
238 236 243 249 253 256 259 259 260 265 272 280 278 276 274 276 282 289 292 296 301 300 300 301 301 303 303 303 304 305 305 307 306 306 307 308 309 310 310 307 309 312 309 305 308 310 309 309 307
237 240 243 248 254 257 262 262 260 265 269 278 279 278 274 280 285 287 291 299 300 299 298 300 301 299 298 299 301 302 304 305 305 304 305 308 309 308 303 302 307 309 307 304 305 305 305 306 306
Height
5909 5908 5908 5909 5908 5907 5906 5906 5905 5905 5904 5903 5902 5902 5901 5901 5901 5902 5900 5898 5897 5896 5896 5895 5895 5894 5894 5894 5893 5894 5894 5894 5893 5893 5893 5893 5893 5893 5893 5894 5895 5895 5895 5896 5896 5897 5897 5898 5898
5911 5911 5912 5911 5909 5908 5908 5907 5907 5906 5906 5905 5904 5904 5903 5903 5902 5901 5900 5899 5898 5898 5897 5897 5896 5896 5895 5895 5895 5895 5895 5895 5895 5894 5894 5894 5894 5894 5895 5895 5895 5896 5896 5896 5897 5897 5898 5898 5898
5913 5913 5913 5912 5911 5910 5910 5909 5908 5908 5908 5907 5906 5906 5905 5904 5903 5902 5901 5901 5900 5899 5899 5899 5898 5897 5897 5897 5896 5896 5896 5896 5896 5895 5895 5895 5895 5895 5895 5895 5896 5896 5896 5897 5897 5898 5898 5899 5899
5915 5915 5915 5914 5912 5912 5912 5911 5911 5911 5910 5909 5908 5908 5907 5906 5904 5904 5903 5902 5902 5901 5901 5900 5900 5899 5898 5898 5898 5897 5897 5897 5897 5896 5896 5896 5896 5896 5896 5896 5896 5896 5897 5897 5897 5898 5899 5899 5899
5917 5917 5916 5915 5914 5914 5913 5913 5913 5913 5912 5911 5910 5910 5909 5908 5906 5905 5905 5904 5903 5903 5902 5901 5901 5900 5900 5900 5899 5899 5898 5898 5898 5897 5897 5897 5897 5896 5896 5896 5896 5896 5897 5897 5898 5898 5899 5899 5899
5920 5918 5918 5916 5916 5916 5916 5915 5915 5914 5914 5913 5912 5911 5910 5909 5907 5907 5906 5905 5905 5904 5904 5903 5902 5902 5901 5901 5900 5900 5900 5899 5899 5898 5898 5898 5897 5897 5897 5896 5896 5896 5896 5897 5897 5898 5898 5898 5899
5920 5919 5919 5919 5918 5919 5918 5917 5916 5916 5916 5915 5914 5913 5911 5910 5909 5908 5907 5907 5906 5905 5905 5904 5903 5903 5902 5902 5902 5901 5901 5900 5900 5899 5899 5898 5898 5897 5897 5897 5896 5896 5896 5896 5897 5897 5898 5898 5898
5922 5921 5920 5920 5920 5920 5920 5919 5918 5917 5917 5917 5915 5914 5913 5912 5910 5909 5908 5907 5907 5907 5906 5905 5905 5904 5904 5904 5903 5902 5902 5901 5900 5900 5899 5899 5898 5897 5897 5897 5897 5896 5896 5896 5896 5896 5897 5897 5898
5922 5923 5922 5922 5922 5921 5921 5921 5920 5919 5919 5918 5917 5916 5914 5912 5911 5910 5909 5909 5908 5908 5907 5907 5907 5906 5906 5905 5904 5903 5903 5902 5901 5901 5900 5899 5898 5898 5897 5897 5896 5896 5895 5895 5895 5895 5896 5896 5896
5924 5923 5923 5924 5923 5923 5922 5922 5922 5921 5920 5920 5918 5917 5915 5913 5912 5912 5911 5910 5910 5910 5909 5908 5908 5908 5907 5907 5906 5905 5904 5903 5902 5901 5900 5899 5899 5898 5897 5897 5896 5896 5895 5895 5895 5895 5895 5895 5896
5924 5924 5924 5924 5924 5924 5924 5924 5923 5923 5922 5921 5920 5919 5917 5915 5914 5914 5913 5912 5912 5911 5911 5910 5910 5909 5909 5908 5907 5906 5905 5904 5903 5902 5901 5900 5899 5898 5897 5896 5896 5896 5895 5895 5894 5894 5894 5894 5895
5925 5925 5924 5925 5925 5926 5926 5925 5925 5924 5924 5922 5921 5920 5918 5916 5915 5915 5914 5914 5913 5913 5912 5912 5911 5910 5910 5909 5908 5907 5906 5905 5904 5902 5901 5900 5899 5898 5898 5897 5896 5896 5895 5894 5894 5894 5894 5893 5893
5925 5925 5925 5926 5926 5926 5927 5926 5926 5925 5924 5923 5922 5921 5920 5918 5917 5916 5916 5915 5915 5914 5914 5913 5912 5912 5911 5910 5909 5907 5906 5905 5904 5903 5902 5901 5900 5899 5898 5897 5896 5895 5895 5894 5893 5893 5893 5892 5892
5926 5925 5925 5926 5926 5926 5927 5927 5927 5926 5925 5924 5923 5922 5921 5920 5918 5918 5917 5916 5916 5916 5915 5915 5914 5913 5912 5911 5910 5908 5907 5906 5904 5903 5902 5901 5900 5899 5898 5897 5896 5895 5894 5893 5893 5892 5892 5892 5891
5925 5926 5927 5927 5926 5926 5927 5928 5926 5926 5925 5925 5924 5923 5922 5920 5919 5919 5918 5918 5917 5916 5916 5915 5914 5914 5913 5912 5911 5909 5908 5906 5905 5904 5903 5902 5900 5899 5898 5897 5896 5895 5894 5893 5892 5891 5891 5890 5890
5925 5926 5927 5927 5926 5927 5928 5927 5927 5926 5925 5925 5925 5924 5923 5922 5921 5920 5919 5918 5917 5917 5916 5915 5914 5914 5913 5912 5911 5910 5908 5907 5906 5904 5903 5902 5900 5899 5898 5897 5895 5894 5893 5892 5891 5890 5889 5888 5888
5925 5926 5926 5927 5926 5926 5927 5927 5927 5926 5925 5925 5925 5924 5924 5923 5922 5921 5920 5919 5918 5917 5916 5915 5914 5913 5912 5912 5911 5909 5908 5907 5905 5904 5903 5901 5900 5899 5897 5896 5894 5893 5891 5890 5889 5889 5888 5887 5886
5924 5924 5925 5925 5926 5926 5926 5926 5926 5925 5925 5925 5924 5924 5924 5923 5922 5921 5920 5919 5918 5917 5916 5915 5914 5913 5912 5911 5910 5909 5908 5907 5905 5904 5902 5901 5899 5898 5896 5895 5893 5891 5890 5889 5888 5887 5886 5885 5884
5922 5923 5924 5924 5925 5925 5925 5925 5925 5925 5925 5925 5924 5924 5924 5923 5923 5922 5921 5919 5918 5917 5916 5915 5914 5913 5912 5911 5910 5909 5907 5906 5905 5903 5901 5900 5898 5897 5895 5893 5891 5890 5888 5887 5886 5885 5884 5883 5882
5920 5921 5922 5923 5924 5924 5923 5923 5924 5923 5924 5923 5923 5923 5923 5922 5922 5921 5920 5919 5918 5917 5916 5915 5913 5912 5911 5911 5909 5908 5907 5905 5904 5902 5900 5899 5897 5895 5893 5892 5890 5888 5886 5885 5883 5882 5881 5880 5880
5918 5920 5921 5922 5921 5921 5921 5922 5921 5922 5922 5922 5922 5922 5921 5921 5921 5920 5920 5918 5917 5916 5915 5914 5913 5912 5910 5909 5908 5907 5906 5904 5903 5901 5899 5897 5896 5894 5891 5889 5887 5885 5883 5882 5881 5879 5878 5877 5877
5916 5918 5919 5919 5919 5919 5920 5920 5920 5919 5919 5919 5920 5920 5919 5919 5919 5919 5918 5917 5916 5915 5914 5913 5911 5910 5909 5908 5907 5905 5904 5903 5901 5899 5897 5895 5893 5891 5889 5887 5885 5883 5881 5879 5878 5876 5875 5874 5873
5914 5915 5916 5916 5917 5917 5918 5918 5918 5917 5917 5917 5917 5917 5916 5917 5917 5917 5916 5915 5914 5913 5913 5911 5910 5909 5908 5907 5905 5904 5902 5901 5899 5897 5895 5893 5891 5889 5887 5885 5882 5880 5878 5876 5875 5873 5872 5870 5869
5911 5912 5913 5913 5914 5915 5915 5915 5915 5914 5914 5914 5914 5915 5914 5914 5914 5914 5913 5912 5912 5911 5910 5909 5908 5907 5906 5905 5903 5902 5901 5899 5897 5895 5893 5891 5889 5887 5884 5882 5880 5877 5875 5873 5872 5870 5868 5867 5865
5907 5909 5910 5910 5911 5912 5912 5911 5912 5912 5912 5911 5911 5911 5911 5912 5911 5911 5910 5909 5909 5908 5908 5907 5906 5905 5904 5902 5901 5899 5898 5896 5894 5892 5890 5888 5886 5884 5881 5879 5877 5875 5872 5870 5868 5866 5865 5863 5861
5904 5905 5907 5907 5908 5909 5909 5909 5910 5909 5909 5908 5908 5908 5908 5909 5908 5908 5907 5906 5906 5905 5904 5904 5903 5902 5901 5899 5898 5897 5895 5893 5891 5889 5887 5885 5883 5881 5878 5876 5873 5871 5869 5867 5865 5862 5861 5859 5857
5900 5901 5903 5904 5904 5904 5905 5906 5907 5906 5906 5906 5906 5906 5906 5905 5905 5904 5904 5903 5902 5902 5901 5900 5900 5899 5898 5897 5895 5893 5892 5890 5888 5886 5884 5881 5879 5877 5874 5872 5870 5867 5865 5863 5861 5858 5857 5855 5853
5896 5898 5899 5899 5899 5900 5901 5901 5902 5902 5903 5903 5903 5903 5902 5902 5901 5901 5900 5900 5899 5899 5898 5897 5896 5895 5894 5893 5892 5890 5888 5886 5884 5882 5880 5877 5875 5873 5870 5868 5865 5863 5861 5859 5857 5854 5852 5850 5848
5892 5893 5893 5894 5895 5896 5896 5899 5898 5898 5899 5898 5898 5899 5898 5898 5898 5897 5896 5896 5895 5895 5894 5893 5892 5891 5890 5889 5887 5885 5883 5882 5879 5877 5875 5873 5870 5868 5865 5863 5860 5858 5856 5854 5852 5850 5848 5846 5843
5887 5888 5889 5890 5890 5891 5891 5895 5893 5894 5894 5894 5894 5894 5894 5894 5894 5893 5893 5892 5892 5891 5890 5889 5888 5887 5886 5884 5883 5881 5879 5877 5875 5872 5870 5868 5865 5863 5860 5858 5856 5853 5851 5849 5847 5845 5843 5841 5838